Waarnemingen

Advertentie
Mijn weer
Falsterbo A, Zweden (2615): temperatuur & dauwpunt: 19.05.2020 12:00:00 - 25.05.2020 12:00:00 (CEST)Falsterbo A, Zweden (2615): windsnelheid & windstoten: 19.05.2020 12:00:00 - 25.05.2020 12:00:00 (CEST)Falsterbo A, Zweden (2615): windrichting: 19.05.2020 12:00:00 - 25.05.2020 12:00:00 (CEST)Falsterbo A, Zweden (2615): luchtdruk: 19.05.2020 12:00:00 - 25.05.2020 12:00:00 (CEST)Falsterbo A, Zweden (2615): zicht: 19.05.2020 12:00:00 - 25.05.2020 12:00:00 (CEST)Falsterbo A, Zweden (2615): neerslag: 19.05.2020 12:00:00 - 25.05.2020 12:00:00 (CEST)
Datum & Tijd tt [°C] td [°C] ff [km/u] ff [kn] fx [km/u] fx [kn] dd ppp [hPa] vv [km] rr [mm]
25.05.2020 12:00:00 15,0 10,7 15 8 21 11 N 1025,9 15 0,0
25.05.2020 11:00:00 13,6 10,6 14 8 23 12 NNW 1025,1 15 0,0
25.05.2020 10:00:00 12,1 9,8 22 12 29 16 NW 1024,2 19 0,0
25.05.2020 09:00:00 11,5 9,4 22 12 31 17 NW 1023,5 14 0,0
25.05.2020 08:00:00 11,0 9,1 26 14 33 18 WNW 1022,7 14 0,0
25.05.2020 07:00:00 10,8 9,1 26 14 34 18 WNW 1022,1 14 0,0
25.05.2020 06:00:00 10,6 8,7 27 15 36 19 WNW 1021,6 14 0,0
25.05.2020 05:00:00 10,8 8,4 29 15 39 21 WNW 1020,9 21 0,0
25.05.2020 04:00:00 10,8 8,2 34 18 40 22 WNW 1020,3 24 0,0
25.05.2020 03:00:00 10,7 8,3 31 17 37 20 WNW 1019,9 28 0,0
25.05.2020 02:00:00 10,6 9,0 29 16 39 21 W 1019,9 25 0,0
25.05.2020 01:00:00 10,4 9,0 32 18 45 24 W 1019,7 7 0,0
25.05.2020 00:00:00 11,3 8,7 31 17 41 22 W 1019,5 26 0,0
24.05.2020 23:00:00 11,4 8,3 33 18 40 22 W 1019,5 25 0,0
24.05.2020 22:00:00 11,3 8,9 28 15 55 30 W 1019,4 19 0,0
24.05.2020 21:00:00 11,9 8,7 26 14 35 19 W 1019,2 22 0,0
24.05.2020 20:00:00 11,8 9,0 26 14 35 19 W 1019,1 21 0,0
24.05.2020 19:00:00 11,6 9,3 22 12 41 22 W 1019,1 16 0,1
24.05.2020 18:00:00 12,5 8,4 33 18 42 23 WNW 1019,0 18 0,0
24.05.2020 17:00:00 12,5 9,0 29 15 55 30 W 1018,7 18 0,0
24.05.2020 16:00:00 12,5 9,4 29 16 36 19 W 1018,4 17 0,0
24.05.2020 15:00:00 12,8 9,4 31 17 50 27 W 1018,3 18 0,0
24.05.2020 14:00:00 12,6 9,2 26 14 47 25 W 1018,1 2,0 0,1
24.05.2020 13:00:00 11,8 10,0 24 13 61 33 W 1018,0 16 1,6
24.05.2020 12:00:00 12,8 9,4 26 14 35 19 WZW 1017,9 16 0,0
24.05.2020 11:00:00 12,8 9,2 29 16 42 23 WZW 1017,9 22 0,0
24.05.2020 10:00:00 12,1 9,1 30 16 41 22 WZW 1018,0 32 0,0
24.05.2020 09:00:00 11,9 8,7 32 17 42 23 WZW 1017,9 18 0,0
24.05.2020 08:00:00 11,7 8,7 30 16 40 21 WZW 1017,5 36 0,0
24.05.2020 07:00:00 11,8 9,7 29 16 36 19 WZW 1017,1 17 0,0
24.05.2020 06:00:00 11,4 9,3 29 16 38 20 ZW 1017,2 - 0,0
24.05.2020 05:00:00 11,5 9,2 29 16 37 20 WZW 1017,3 - 0,0
24.05.2020 04:00:00 11,3 8,7 29 16 37 20 ZW 1017,5 - 0,0
24.05.2020 03:00:00 10,9 8,5 28 15 38 20 ZW 1017,7 - 0,0
24.05.2020 02:00:00 10,5 8,4 25 14 31 17 ZW 1018,3 2,8 0,0
24.05.2020 01:00:00 11,2 8,9 24 13 29 16 ZW 1018,4 1,9 0,0
24.05.2020 00:00:00 11,3 8,0 26 14 31 17 WZW 1018,3 6 0,0
23.05.2020 23:00:00 11,7 7,8 23 13 35 19 W 1018,3 4,3 0,0
23.05.2020 22:00:00 12,3 7,6 32 17 38 21 W 1018,1 4,0 0,0
23.05.2020 21:00:00 12,8 7,7 33 18 41 22 W 1017,6 3,9 0,0
23.05.2020 20:00:00 13,4 7,6 31 17 37 20 W 1016,8 4,7 0,0
23.05.2020 19:00:00 13,9 7,7 29 16 34 18 W 1016,3 4,7 0,0
23.05.2020 18:00:00 14,4 9,6 24 13 31 17 W 1016,0 10 0,0
23.05.2020 17:00:00 14,9 9,0 23 12 29 15 W 1015,8 4,5 0,0
23.05.2020 16:00:00 13,9 10,3 18 10 32 17 W 1016,0 11 0,0
23.05.2020 15:00:00 13,7 9,9 25 14 31 17 W 1015,8 10 0,0
23.05.2020 14:00:00 13,4 11,3 20 11 25 13 ZW 1015,5 4,1 0,0
23.05.2020 13:00:00 14,2 12,4 16 9 21 12 ZZW 1015,7 7 0,0
23.05.2020 12:00:00 13,5 12,6 16 9 22 12 Z 1015,6 2,9 0,0
23.05.2020 11:00:00 12,8 12,2 13 7 20 11 Z 1015,5 2,4 0,0
23.05.2020 10:00:00 12,7 12,2 14 7 19 10 ZZW 1015,9 1,0 0,0
23.05.2020 09:00:00 12,1 11,3 11 6 17 9 ZW 1016,0 0,3 0,0
23.05.2020 08:00:00 11,8 11,0 9 5 16 9 ZZW 1015,9 7 0,0
23.05.2020 07:00:00 11,2 10,6 14 8 24 13 Z 1015,8 6 0,0
23.05.2020 06:00:00 10,5 9,9 20 11 34 18 Z 1016,0 8 0,0
23.05.2020 05:00:00 10,3 9,7 30 16 42 23 Z 1015,9 9 0,0
23.05.2020 04:00:00 10,1 9,3 38 20 54 29 Z 1016,2 14 0,0
23.05.2020 03:00:00 10,1 9,5 39 21 54 29 Z 1016,5 13 2,5
23.05.2020 02:00:00 10,7 9,5 37 20 46 25 ZZO 1016,3 8 1,3
23.05.2020 01:00:00 11,4 9,3 29 16 39 21 ZZO 1017,1 16 0,1
23.05.2020 00:00:00 12,0 8,7 29 16 42 23 ZO 1017,9 38 0,0
22.05.2020 23:00:00 11,9 8,6 33 18 41 22 ZO 1018,4 40 0,4
22.05.2020 22:00:00 11,6 8,1 31 17 40 21 ZO 1018,9 22 0,3
22.05.2020 21:00:00 12,1 7,4 33 18 45 24 ZO 1018,7 24 0,0
22.05.2020 20:00:00 12,8 6,4 37 20 50 27 ZO 1018,5 46 0,0
22.05.2020 19:00:00 13,2 5,8 40 22 51 28 ZO 1018,8 47 0,0
22.05.2020 18:00:00 12,9 6,3 39 21 50 27 ZO 1019,9 48 0,0
22.05.2020 17:00:00 13,6 5,0 36 20 44 24 ZO 1020,8 50 0,0
22.05.2020 16:00:00 14,0 6,1 36 20 - - ZO 1021,5 43 0,0
22.05.2020 15:00:00 14,7 6,3 34 18 46 25 ZO 1022,0 43 0,0
22.05.2020 14:00:00 15,3 6,0 36 19 45 24 ZO 1022,1 34 0,0
22.05.2020 13:00:00 15,7 8,2 31 17 40 22 ZO 1022,4 39 0,0
22.05.2020 12:00:00 16,1 8,1 31 17 37 20 ZO 1022,5 31 0,0
22.05.2020 11:00:00 15,9 8,9 27 15 34 19 ZO 1022,6 35 0,0
22.05.2020 10:00:00 15,2 8,4 24 13 29 16 ZO 1022,4 48 0,0
22.05.2020 09:00:00 14,0 8,4 21 11 27 14 ZO 1022,6 49 0,0
22.05.2020 08:00:00 13,4 8,2 20 11 28 15 ZO 1022,8 29 0,0
22.05.2020 07:00:00 12,1 8,6 19 10 24 13 ZO 1022,9 45 0,0
22.05.2020 06:00:00 11,2 8,8 18 10 22 12 ZO 1022,8 50 0,0
22.05.2020 05:00:00 10,9 8,5 17 9 21 12 ZO 1023,2 50 0,0
22.05.2020 04:00:00 11,4 8,4 17 9 22 12 OZO 1023,6 46 0,0
22.05.2020 03:00:00 11,7 7,8 14 8 18 10 OZO 1024,0 50 0,0
22.05.2020 02:00:00 11,5 7,8 15 8 26 14 ZO 1024,1 50 0,0
22.05.2020 01:00:00 11,4 7,1 22 12 26 14 ZZO 1024,3 50 0,0
22.05.2020 00:00:00 11,3 8,2 18 10 23 12 ZZO 1024,6 50 0,0
21.05.2020 23:00:00 11,5 8,9 16 9 24 13 ZO 1024,0 49 0,0
21.05.2020 22:00:00 11,6 9,0 19 10 24 13 ZZO 1023,9 46 0,0
21.05.2020 21:00:00 11,9 9,6 16 8 - - ZO 1023,9 31 0,0
21.05.2020 20:00:00 12,2 9,4 16 8 21 11 ZZO 1024,0 48 0,0
21.05.2020 19:00:00 12,7 10,1 16 9 21 12 ZO 1024,2 50 0,0
21.05.2020 18:00:00 13,3 10,1 17 9 21 11 ZZO 1024,5 44 0,0
21.05.2020 17:00:00 14,0 9,4 16 8 21 11 ZZO 1024,6 33 0,0
21.05.2020 16:00:00 16,1 9,7 16 9 - - ZZO 1024,9 40 0,0
21.05.2020 15:00:00 15,0 8,5 16 9 - - ZZO 1025,0 40 0,0
21.05.2020 14:00:00 15,4 9,1 16 8 20 11 ZZO 1025,3 37 0,0
21.05.2020 13:00:00 15,2 9,1 15 8 19 11 ZZO 1025,6 43 0,0
21.05.2020 12:00:00 15,3 9,4 14 8 20 11 ZZO 1025,5 37 0,0
21.05.2020 11:00:00 14,0 8,4 15 8 21 11 Z 1025,5 37 0,0
21.05.2020 10:00:00 12,9 9,0 17 9 22 12 ZZW 1025,4 30 0,0
21.05.2020 09:00:00 12,2 9,9 17 9 22 12 Z 1025,3 30 0,0
21.05.2020 08:00:00 11,3 9,6 16 9 - - Z 1025,1 32 0,0
21.05.2020 07:00:00 10,0 8,8 14 8 20 11 Z 1024,8 37 0,0
21.05.2020 06:00:00 9,1 8,3 15 8 18 10 Z 1024,5 22 0,0
21.05.2020 05:00:00 8,7 7,9 11 6 17 9 ZZO 1024,5 12 0,0
21.05.2020 04:00:00 8,2 7,3 13 7 17 9 Z 1024,4 20 0,0
21.05.2020 03:00:00 8,0 7,1 13 7 16 9 Z 1024,4 19 0,0
21.05.2020 02:00:00 8,9 8,0 14 8 17 9 ZZW 1024,5 9 0,0
21.05.2020 01:00:00 8,4 7,5 11 6 16 8 Z 1024,5 14 0,0
21.05.2020 00:00:00 9,2 8,1 10 5 14 8 ZZW 1024,2 9 0,0
20.05.2020 23:00:00 8,9 7,5 11 6 - - Z 1024,1 17 0,0
20.05.2020 22:00:00 9,2 7,0 12 6 16 8 Z 1023,8 28 0,0
20.05.2020 21:00:00 10,4 8,0 12 6 18 10 ZZW 1023,4 28 0,0
20.05.2020 20:00:00 11,9 8,2 13 7 17 9 ZZW 1023,3 33 0,0
20.05.2020 19:00:00 13,2 8,1 12 6 16 9 ZZW 1023,2 42 0,0
20.05.2020 18:00:00 13,7 7,7 13 7 16 9 ZW 1023,2 41 0,0
20.05.2020 17:00:00 15,1 4,9 8 5 12 6 WZW 1023,1 45 0,0
20.05.2020 16:00:00 15,0 6,0 9 5 13 7 W 1023,1 33 0,0
20.05.2020 15:00:00 15,9 8,1 11 6 13 7 W 1023,4 37 0,0
20.05.2020 14:00:00 14,5 7,3 12 6 14 8 W 1023,4 34 0,0
20.05.2020 13:00:00 13,8 6,9 10 5 16 8 W 1023,3 27 0,0
20.05.2020 12:00:00 12,7 7,2 13 7 16 9 WNW 1023,3 27 0,0
20.05.2020 11:00:00 11,7 7,4 13 7 16 9 WNW 1023,1 22 0,0
20.05.2020 10:00:00 11,8 7,3 8 5 15 8 NNW 1022,8 28 0,0
20.05.2020 09:00:00 10,9 7,2 11 6 18 10 NNW 1022,5 22 0,0
20.05.2020 08:00:00 10,9 7,8 16 9 21 12 NNW 1022,1 20 0,0
20.05.2020 07:00:00 10,4 7,8 17 9 24 13 NNW 1021,8 18 0,0
20.05.2020 06:00:00 9,9 7,7 20 11 23 13 NW 1021,4 20 0,0
20.05.2020 05:00:00 9,8 7,6 20 11 27 14 NW 1021,1 25 0,0
20.05.2020 04:00:00 9,9 7,3 22 12 26 14 WNW 1021,3 44 0,0
20.05.2020 03:00:00 10,1 7,2 18 10 22 12 WNW 1020,9 50 0,0
20.05.2020 02:00:00 10,4 6,9 15 8 18 10 WNW 1020,8 50 0,0
20.05.2020 01:00:00 10,3 6,4 13 7 16 9 WNW 1020,7 50 0,0
20.05.2020 00:00:00 10,8 6,2 15 8 19 10 NW 1020,5 50 0,0
19.05.2020 23:00:00 11,0 5,9 15 8 23 12 NW 1020,1 50 0,0
19.05.2020 22:00:00 11,4 5,3 19 11 26 14 NW 1019,7 50 0,0
19.05.2020 21:00:00 11,9 6,2 19 10 23 12 NNW 1019,3 50 0,0
19.05.2020 20:00:00 12,4 6,7 18 10 30 16 NNW 1018,9 50 0,0
19.05.2020 19:00:00 12,9 7,6 24 13 33 18 NNW 1018,4 49 0,0
19.05.2020 18:00:00 13,3 7,3 26 14 31 17 NW 1018,0 50 0,0
19.05.2020 17:00:00 13,9 7,7 23 12 30 16 NW 1017,6 43 0,0
19.05.2020 16:00:00 14,2 7,5 27 14 40 22 NW 1017,5 34 0,0
19.05.2020 15:00:00 13,8 7,6 34 19 48 26 NW 1017,1 26 0,0
19.05.2020 14:00:00 13,9 6,7 37 20 47 25 NW 1016,7 36 0,0
19.05.2020 13:00:00 13,9 8,5 34 18 40 22 NW 1016,2 31 0,0
19.05.2020 12:00:00 12,2 9,4 27 14 35 19 WNW 1015,8 24 0,0

tt = temperatuur
td = dauwpunt
ff = windsnelheid
fx = windstoten
dd = windrichting
ppp = luchtdruk
vv = zicht
rr = neerslag

Weerstations in de omgeving